Location: Antin
(43.3330°N, 0.2804°E)
Time: 00:30:06
(UTC+00:00)

Okean 3 Rocket - Visible Passes

Search period start: 15 August 2022 00:00
Search period end: 25 August 2022 00:00
Orbit: 613 x 645 km, 82.5° (Epoch: 14 August)

Date Brightness Start Highest point End Pass type
(mag) Time Alt. Az. Time Alt. Az. Time Alt. Az.
15 Aug 3.8 20:25:22 16° SSE 20:28:45 49° E 20:33:02 10° NNE visible
15 Aug 6.3 22:04:23 10° WSW 22:07:07 16° WNW 22:09:52 10° NNW visible
16 Aug 3.6 20:45:01 11° S 20:49:18 81° W 20:53:44 10° N visible
17 Aug 5.1 19:29:10 10° SE 19:32:13 18° E 19:35:15 10° NE visible
17 Aug 4.8 21:05:48 10° SSW 21:09:58 40° WNW 21:14:09 10° N visible
18 Aug 4.2 19:48:33 10° SSE 19:52:35 35° E 19:56:37 10° NNE visible
18 Aug 6.0 21:27:23 10° WSW 21:30:46 21° WNW 21:34:10 10° NNW visible
19 Aug 3.5 20:08:40 10° S 20:13:05 73° E 20:17:30 10° NNE visible
19 Aug 6.7 21:50:20 10° W 21:51:42 11° WNW 21:53:04 10° NW visible
20 Aug 4.3 20:29:21 10° SSW 20:33:42 55° W 20:38:03 10° N visible
21 Aug 5.6 20:50:37 10° SW 20:54:26 28° WNW 20:58:15 10° NNW visible
22 Aug 3.7 19:32:37 10° S 19:36:53 51° E 19:41:10 10° NNE visible
22 Aug 6.5 21:12:42 10° WSW 21:15:18 15° WNW 21:17:54 10° NNW visible
23 Aug 3.7 19:53:02 10° SSW 19:57:27 78° W 20:01:52 10° N visible
24 Aug 5.1 20:14:00 10° SW 20:18:07 38° WNW 20:22:14 10° N visible
